START_TIME,STEP,MOV.,P1,t_acc.,E44,t_acc.,A3,t_acc.,P10,t_acc.
1979-08-06 06:00:21.770 ,0,0,0.,1.2,232.,1.2,0.,1.2,1.,1.2
1979-08-06 06:00:22.970 ,0,0,1.,1.2,64.,1.2,0.,1.2,0.,1.2
1979-08-06 06:00:24.170 ,0,0,0.,1.2,66.,1.2,0.,1.2,0.,1.2
1979-08-06 06:00:25.370 ,0,0,1.,1.2,78.,1.2,0.,1.2,0.,1.2
1979-08-06 06:00:26.570 ,0,0,0.,1.2,84.,1.2,0.,1.2,0.,1.2
1979-08-06 06:00:27.770 ,0,0,0.,1.2,224.,1.2,0.,1.2,1.,1.2
1979-08-06 06:00:28.970 ,0,0,0.,1.2,84.,1.2,0.,1.2,0.,1.2
1979-08-06 06:00:30.170 ,0,0,1.,1.2,63.,1.2,0.,1.2,0.,1.2
1979-08-06 06:00:31.370 ,0,0,0.,1.2,74.,1.2,0.,1.2,0.,1.2
1979-08-06 06:00:32.570 ,0,0,0.,1.2,78.,1.2,0.,1.2,1.,1.2
1979-08-06 06:00:33.770 ,0,0,1.,1.2,272.,1.2,0.,1.2,0.,1.2
1979-08-06 06:00:34.970 ,0,0,1.,1.2,86.,1.2,0.,1.2,0.,1.2
1979-08-06 06:00:36.170 ,0,0,0.,1.2,104.,1.2,0.,1.2,0.,1.2
1979-08-06 06:00:37.370 ,0,0,3.,1.2,84.,1.2,0.,1.2,0.,1.2
1979-08-06 06:00:38.570 ,0,0,0.,1.2,98.,1.2,0.,1.2,0.,1.2
1979-08-06 06:00:39.770 ,0,0,4.,1.2,104.,1.2,0.,1.2,1.,1.2
1979-08-06 06:00:40.970 ,0,0,1.,1.2,98.,1.2,0.,1.2,0.,1.2
1979-08-06 06:00:42.170 ,0,0,1.,1.2,98.,1.2,0.,1.2,0.,1.2
1979-08-06 06:00:43.370 ,0,0,1.,1.2,94.,1.2,0.,1.2,0.,1.2
1979-08-06 06:00:44.570 ,0,0,0.,1.2,100.,1.2,0.,1.2,0.,1.2
1979-08-06 06:00:45.770 ,4,0,0.,1.2,204.,1.2,0.,1.2,1.,1.2
1979-08-06 06:00:46.970 ,4,0,3.,1.2,86.,1.2,0.,1.2,0.,1.2
1979-08-06 06:00:48.170 ,4,0,2.,1.2,76.,1.2,0.,1.2,1.,1.2
1979-08-06 06:00:49.370 ,4,0,1.,1.2,108.,1.2,0.,1.2,0.,1.2
1979-08-06 06:00:50.570 ,4,0,1.,1.2,92.,1.2,0.,1.2,0.,1.2
1979-08-06 06:00:51.770 ,4,0,2.,1.2,256.,1.2,0.,1.2,0.,1.2
1979-08-06 06:00:52.970 ,4,0,1.,1.2,80.,1.2,0.,1.2,1.,1.2
1979-08-06 06:00:54.170 ,4,0,0.,1.2,84.,1.2,0.,1.2,0.,1.2
1979-08-06 06:00:55.370 ,4,0,3.,1.2,74.,1.2,0.,1.2,0.,1.2
1979-08-06 06:00:56.570 ,4,0,2.,1.2,88.,1.2,0.,1.2,0.,1.2
1979-08-06 06:00:57.770 ,4,0,2.,1.2,232.,1.2,0.,1.2,0.,1.2
1979-08-06 06:00:58.970 ,4,0,0.,1.2,23.,1.2,0.,1.2,0.,1.2
1979-08-06 06:01:00.170 ,4,0,0.,1.2,17.,1.2,0.,1.2,0.,1.2
1979-08-06 06:01:01.370 ,4,0,1.,1.2,24.,1.2,0.,1.2,0.,1.2
1979-08-06 06:01:02.570 ,4,0,0.,1.2,20.,1.2,0.,1.2,0.,1.2
1979-08-06 06:01:03.770 ,4,0,1.,1.2,200.,1.2,0.,1.2,0.,1.2
1979-08-06 06:01:04.970 ,4,0,1.,1.2,64.,1.2,0.,1.2,0.,1.2
1979-08-06 06:01:06.170 ,4,0,0.,1.2,80.,1.2,0.,1.2,1.,1.2
1979-08-06 06:01:07.370 ,4,0,1.,1.2,61.,1.2,0.,1.2,0.,1.2
1979-08-06 06:01:08.570 ,4,0,3.,1.2,82.,1.2,0.,1.2,0.,1.2
1979-08-06 06:01:09.770 ,7,0,1.,1.2,232.,1.2,0.,1.2,0.,1.2
1979-08-06 06:01:10.970 ,7,0,1.,1.2,100.,1.2,0.,1.2,0.,1.2
1979-08-06 06:01:12.170 ,7,0,2.,1.2,82.,1.2,0.,1.2,0.,1.2
1979-08-06 06:01:13.370 ,7,0,1.,1.2,82.,1.2,0.,1.2,0.,1.2
1979-08-06 06:01:14.570 ,7,0,1.,1.2,80.,1.2,0.,1.2,0.,1.2
1979-08-06 06:01:15.770 ,7,0,0.,1.2,252.,1.2,0.,1.2,0.,1.2
1979-08-06 06:01:16.970 ,7,0,2.,1.2,76.,1.2,0.,1.2,0.,1.2
1979-08-06 06:01:18.170 ,7,0,1.,1.2,80.,1.2,0.,1.2,0.,1.2
1979-08-06 06:01:19.370 ,7,0,2.,1.2,96.,1.2,0.,1.2,0.,1.2
1979-08-06 06:01:20.570 ,7,0,0.,1.2,108.,1.2,0.,1.2,0.,1.2
1979-08-06 06:01:21.770 ,7,0,0.,1.2,240.,1.2,1.,1.2,0.,1.2
1979-08-06 06:01:22.970 ,7,0,0.,1.2,80.,1.2,2.,1.2,1.,1.2
1979-08-06 06:01:24.170 ,7,0,0.,1.2,94.,1.2,5.,1.2,0.,1.2
1979-08-06 06:01:25.370 ,7,0,0.,1.2,88.,1.2,9.,1.2,0.,1.2
1979-08-06 06:01:26.570 ,7,0,0.,1.2,94.,1.2,3.,1.2,0.,1.2
1979-08-06 06:01:27.770 ,7,0,0.,1.2,98.,1.2,2.,1.2,0.,1.2
1979-08-06 06:01:28.970 ,7,0,0.,1.2,106.,1.2,5.,1.2,0.,1.2
1979-08-06 06:01:30.170 ,7,0,0.,1.2,104.,1.2,6.,1.2,0.,1.2
1979-08-06 06:01:31.370 ,7,0,0.,1.2,118.,1.2,8.,1.2,0.,1.2
1979-08-06 06:01:32.570 ,7,0,0.,1.2,114.,1.2,6.,1.2,1.,1.2
1979-08-06 06:01:33.770 ,3,0,0.,1.2,264.,1.2,5.,1.2,2.,1.2
1979-08-06 06:01:34.970 ,3,0,1.,1.2,112.,1.2,0.,1.2,0.,1.2
1979-08-06 06:01:36.170 ,3,0,1.,1.2,122.,1.2,0.,1.2,0.,1.2
1979-08-06 06:01:37.370 ,3,0,2.,1.2,118.,1.2,1.,1.2,0.,1.2
1979-08-06 06:01:38.570 ,3,0,1.,1.2,110.,1.2,0.,1.2,0.,1.2
1979-08-06 06:01:39.770 ,3,0,2.,1.2,304.,1.2,0.,1.2,0.,1.2
1979-08-06 06:01:40.970 ,3,0,0.,1.2,110.,1.2,0.,1.2,0.,1.2
1979-08-06 06:01:42.170 ,3,0,0.,1.2,102.,1.2,0.,1.2,1.,1.2
1979-08-06 06:01:43.370 ,3,0,3.,1.2,104.,1.2,0.,1.2,0.,1.2
1979-08-06 06:01:44.570 ,3,0,0.,1.2,108.,1.2,0.,1.2,0.,1.2
1979-08-06 06:01:45.770 ,3,0,2.,1.2,256.,1.2,0.,1.2,0.,1.2
1979-08-06 06:01:46.970 ,3,0,1.,1.2,102.,1.2,0.,1.2,1.,1.2
1979-08-06 06:01:48.170 ,3,0,3.,1.2,116.,1.2,0.,1.2,1.,1.2
1979-08-06 06:01:49.370 ,3,0,2.,1.2,112.,1.2,0.,1.2,0.,1.2
1979-08-06 06:01:50.570 ,3,0,2.,1.2,124.,1.2,0.,1.2,0.,1.2
1979-08-06 06:01:51.770 ,3,0,0.,1.2,288.,1.2,0.,1.2,0.,1.2
1979-08-06 06:01:52.970 ,3,0,0.,1.2,23.,1.2,0.,1.2,0.,1.2
1979-08-06 06:01:54.170 ,3,0,0.,1.2,22.,1.2,0.,1.2,0.,1.2
1979-08-06 06:01:55.370 ,3,0,0.,1.2,34.,1.2,0.,1.2,0.,1.2
1979-08-06 06:01:56.570 ,3,0,2.,1.2,24.,1.2,0.,1.2,1.,1.2
1979-08-06 06:01:57.770 ,0,0,1.,1.2,244.,1.2,0.,1.2,0.,1.2
1979-08-06 06:01:58.970 ,0,0,1.,1.2,118.,1.2,0.,1.2,0.,1.2
1979-08-06 06:02:00.170 ,0,0,0.,1.2,104.,1.2,0.,1.2,1.,1.2
1979-08-06 06:02:01.370 ,0,0,0.,1.2,116.,1.2,0.,1.2,0.,1.2
1979-08-06 06:02:02.570 ,0,0,2.,1.2,122.,1.2,0.,1.2,0.,1.2
1979-08-06 06:02:03.770 ,0,0,1.,1.2,264.,1.2,0.,1.2,0.,1.2
1979-08-06 06:02:04.970 ,0,0,1.,1.2,98.,1.2,0.,1.2,0.,1.2
1979-08-06 06:02:06.170 ,0,0,0.,1.2,124.,1.2,0.,1.2,0.,1.2
1979-08-06 06:02:07.370 ,0,0,1.,1.2,106.,1.2,0.,1.2,0.,1.2
1979-08-06 06:02:08.570 ,0,0,0.,1.2,116.,1.2,0.,1.2,0.,1.2
1979-08-06 06:02:09.770 ,0,0,0.,1.2,280.,1.2,0.,1.2,0.,1.2
1979-08-06 06:02:10.970 ,0,0,0.,1.2,122.,1.2,0.,1.2,1.,1.2
1979-08-06 06:02:12.170 ,0,0,1.,1.2,120.,1.2,0.,1.2,0.,1.2
1979-08-06 06:02:13.370 ,0,0,0.,1.2,118.,1.2,0.,1.2,0.,1.2
1979-08-06 06:02:14.570 ,0,0,2.,1.2,120.,1.2,0.,1.2,0.,1.2
1979-08-06 06:02:15.770 ,0,0,0.,1.2,148.,1.2,0.,1.2,0.,1.2
1979-08-06 06:02:16.970 ,0,0,3.,1.2,128.,1.2,0.,1.2,0.,1.2
1979-08-06 06:02:18.170 ,0,0,1.,1.2,132.,1.2,0.,1.2,0.,1.2
1979-08-06 06:02:19.370 ,0,0,0.,1.2,126.,1.2,0.,1.2,0.,1.2
1979-08-06 06:02:20.570 ,0,0,1.,1.2,144.,1.2,0.,1.2,0.,1.2
1979-08-06 06:02:21.770 ,4,0,1.,1.2,220.,1.2,0.,1.2,0.,1.2
1979-08-06 06:02:22.970 ,4,0,1.,1.2,132.,1.2,0.,1.2,0.,1.2
1979-08-06 06:02:24.170 ,4,0,1.,1.2,122.,1.2,0.,1.2,1.,1.2
1979-08-06 06:02:25.370 ,4,0,0.,1.2,128.,1.2,0.,1.2,1.,1.2
1979-08-06 06:02:26.570 ,4,0,0.,1.2,124.,1.2,0.,1.2,0.,1.2
1979-08-06 06:02:27.770 ,4,0,0.,1.2,288.,1.2,0.,1.2,0.,1.2
1979-08-06 06:02:28.970 ,4,0,0.,1.2,116.,1.2,0.,1.2,0.,1.2
1979-08-06 06:02:30.170 ,4,0,1.,1.2,104.,1.2,0.,1.2,0.,1.2
1979-08-06 06:02:31.370 ,4,0,1.,1.2,144.,1.2,0.,1.2,0.,1.2
1979-08-06 06:02:32.570 ,4,0,1.,1.2,116.,1.2,0.,1.2,0.,1.2
1979-08-06 06:02:33.770 ,4,0,1.,1.2,248.,1.2,1.,1.2,0.,1.2
1979-08-06 06:02:34.970 ,4,0,1.,1.2,29.,1.2,0.,1.2,0.,1.2
1979-08-06 06:02:36.170 ,4,0,0.,1.2,12.,1.2,0.,1.2,0.,1.2
1979-08-06 06:02:37.370 ,4,0,0.,1.2,40.,1.2,0.,1.2,1.,1.2
1979-08-06 06:02:38.570 ,4,0,2.,1.2,36.,1.2,0.,1.2,0.,1.2
1979-08-06 06:02:39.770 ,4,0,1.,1.2,208.,1.2,0.,1.2,0.,1.2
1979-08-06 06:02:40.970 ,4,0,0.,1.2,168.,1.2,0.,1.2,0.,1.2
1979-08-06 06:02:42.170 ,4,0,2.,1.2,148.,1.2,0.,1.2,1.,1.2
1979-08-06 06:02:43.370 ,4,0,0.,1.2,152.,1.2,0.,1.2,0.,1.2
1979-08-06 06:02:44.570 ,4,0,1.,1.2,144.,1.2,0.,1.2,1.,1.2
1979-08-06 06:02:45.770 ,7,0,0.,1.2,312.,1.2,0.,1.2,1.,1.2
1979-08-06 06:02:46.970 ,7,0,3.,1.2,156.,1.2,0.,1.2,1.,1.2
1979-08-06 06:02:48.170 ,7,0,1.,1.2,172.,1.2,0.,1.2,0.,1.2
1979-08-06 06:02:49.370 ,7,0,0.,1.2,160.,1.2,1.,1.2,0.,1.2
1979-08-06 06:02:50.570 ,7,0,0.,1.2,188.,1.2,0.,1.2,1.,1.2
1979-08-06 06:02:51.770 ,7,0,1.,1.2,304.,1.2,0.,1.2,1.,1.2
1979-08-06 06:02:52.970 ,7,0,1.,1.2,172.,1.2,0.,1.2,0.,1.2
1979-08-06 06:02:54.170 ,7,0,1.,1.2,136.,1.2,0.,1.2,0.,1.2
1979-08-06 06:02:55.370 ,7,0,0.,1.2,144.,1.2,0.,1.2,1.,1.2
1979-08-06 06:02:56.570 ,7,0,2.,1.2,180.,1.2,0.,1.2,0.,1.2
1979-08-06 06:02:57.770 ,7,0,3.,1.2,280.,1.2,1.,1.2,0.,1.2
1979-08-06 06:02:58.970 ,7,0,0.,1.2,140.,1.2,2.,1.2,0.,1.2
1979-08-06 06:03:00.170 ,7,0,0.,1.2,152.,1.2,5.,1.2,0.,1.2
1979-08-06 06:03:01.370 ,7,0,0.,1.2,144.,1.2,6.,1.2,0.,1.2
1979-08-06 06:03:02.570 ,7,0,0.,1.2,126.,1.2,5.,1.2,0.,1.2
1979-08-06 06:03:03.770 ,7,0,0.,1.2,140.,1.2,4.,1.2,0.,1.2
1979-08-06 06:03:04.970 ,7,0,0.,1.2,152.,1.2,5.,1.2,0.,1.2
1979-08-06 06:03:06.170 ,7,0,0.,1.2,140.,1.2,3.,1.2,0.,1.2
1979-08-06 06:03:07.370 ,7,0,0.,1.2,152.,1.2,6.,1.2,0.,1.2
1979-08-06 06:03:08.570 ,7,0,0.,1.2,144.,1.2,8.,1.2,0.,1.2
1979-08-06 06:03:09.770 ,3,0,0.,1.2,312.,1.2,2.,1.2,0.,1.2
1979-08-06 06:03:10.970 ,3,0,1.,1.2,160.,1.2,0.,1.2,0.,1.2
1979-08-06 06:03:12.170 ,3,0,2.,1.2,160.,1.2,0.,1.2,0.,1.2
1979-08-06 06:03:13.370 ,3,0,2.,1.2,164.,1.2,0.,1.2,0.,1.2
1979-08-06 06:03:14.570 ,3,0,2.,1.2,180.,1.2,0.,1.2,0.,1.2
1979-08-06 06:03:15.770 ,3,0,1.,1.2,288.,1.2,0.,1.2,0.,1.2
1979-08-06 06:03:16.970 ,3,0,2.,1.2,168.,1.2,0.,1.2,0.,1.2
1979-08-06 06:03:18.170 ,3,0,0.,1.2,160.,1.2,0.,1.2,0.,1.2
1979-08-06 06:03:19.370 ,3,0,0.,1.2,180.,1.2,0.,1.2,0.,1.2
1979-08-06 06:03:20.570 ,3,0,1.,1.2,180.,1.2,0.,1.2,0.,1.2
1979-08-06 06:03:21.770 ,3,0,0.,1.2,304.,1.2,0.,1.2,0.,1.2
1979-08-06 06:03:22.970 ,3,0,0.,1.2,168.,1.2,0.,1.2,0.,1.2
1979-08-06 06:03:24.170 ,3,0,3.,1.2,172.,1.2,0.,1.2,2.,1.2
1979-08-06 06:03:25.370 ,3,0,4.,1.2,140.,1.2,0.,1.2,0.,1.2
1979-08-06 06:03:26.570 ,3,0,1.,1.2,140.,1.2,0.,1.2,1.,1.2
1979-08-06 06:03:27.770 ,3,0,1.,1.2,288.,1.2,0.,1.2,0.,1.2
1979-08-06 06:03:28.970 ,3,0,1.,1.2,40.,1.2,0.,1.2,0.,1.2
1979-08-06 06:03:30.170 ,3,0,2.,1.2,42.,1.2,0.,1.2,0.,1.2
1979-08-06 06:03:31.370 ,3,0,2.,1.2,44.,1.2,0.,1.2,0.,1.2
1979-08-06 06:03:32.570 ,3,0,0.,1.2,39.,1.2,0.,1.2,0.,1.2
1979-08-06 06:03:33.770 ,0,0,1.,1.2,252.,1.2,0.,1.2,1.,1.2
1979-08-06 06:03:34.970 ,0,0,0.,1.2,118.,1.2,0.,1.2,0.,1.2
1979-08-06 06:03:36.170 ,0,0,0.,1.2,152.,1.2,0.,1.2,0.,1.2
1979-08-06 06:03:37.370 ,0,0,0.,1.2,110.,1.2,0.,1.2,0.,1.2
1979-08-06 06:03:38.570 ,0,0,0.,1.2,118.,1.2,0.,1.2,0.,1.2
1979-08-06 06:03:39.770 ,0,0,1.,1.2,280.,1.2,0.,1.2,0.,1.2
1979-08-06 06:03:40.970 ,0,0,0.,1.2,148.,1.2,0.,1.2,0.,1.2
1979-08-06 06:03:42.170 ,0,0,0.,1.2,128.,1.2,0.,1.2,0.,1.2
1979-08-06 06:03:43.370 ,0,0,1.,1.2,140.,1.2,0.,1.2,0.,1.2
1979-08-06 06:03:44.570 ,0,0,2.,1.2,104.,1.2,0.,1.2,0.,1.2
1979-08-06 06:03:45.770 ,0,0,1.,1.2,320.,1.2,0.,1.2,0.,1.2
1979-08-06 06:03:46.970 ,0,0,1.,1.2,144.,1.2,0.,1.2,2.,1.2
1979-08-06 06:03:48.170 ,0,0,1.,1.2,128.,1.2,0.,1.2,0.,1.2
1979-08-06 06:03:49.370 ,0,0,0.,1.2,116.,1.2,0.,1.2,0.,1.2
1979-08-06 06:03:50.570 ,0,0,1.,1.2,122.,1.2,0.,1.2,0.,1.2
1979-08-06 06:03:51.770 ,0,0,0.,1.2,140.,1.2,0.,1.2,0.,1.2
1979-08-06 06:03:52.970 ,0,0,1.,1.2,132.,1.2,0.,1.2,0.,1.2
1979-08-06 06:03:54.170 ,0,0,2.,1.2,96.,1.2,0.,1.2,0.,1.2
1979-08-06 06:03:55.370 ,0,0,1.,1.2,98.,1.2,0.,1.2,0.,1.2
1979-08-06 06:03:56.570 ,0,0,2.,1.2,120.,1.2,0.,1.2,1.,1.2
1979-08-06 06:03:57.770 ,4,0,1.,1.2,224.,1.2,0.,1.2,0.,1.2
1979-08-06 06:03:58.970 ,4,0,0.,1.2,100.,1.2,1.,1.2,0.,1.2
1979-08-06 06:04:00.170 ,4,0,3.,1.2,104.,1.2,0.,1.2,0.,1.2
1979-08-06 06:04:01.370 ,4,0,0.,1.2,108.,1.2,0.,1.2,0.,1.2
1979-08-06 06:04:02.570 ,4,0,1.,1.2,90.,1.2,0.,1.2,0.,1.2
1979-08-06 06:04:03.770 ,4,0,2.,1.2,264.,1.2,0.,1.2,0.,1.2
1979-08-06 06:04:04.970 ,4,0,2.,1.2,98.,1.2,0.,1.2,0.,1.2
1979-08-06 06:04:06.170 ,4,0,0.,1.2,120.,1.2,0.,1.2,0.,1.2
1979-08-06 06:04:07.370 ,4,0,1.,1.2,92.,1.2,0.,1.2,1.,1.2
1979-08-06 06:04:08.570 ,4,0,0.,1.2,88.,1.2,0.,1.2,0.,1.2
1979-08-06 06:04:09.770 ,4,0,0.,1.2,272.,1.2,0.,1.2,0.,1.2
1979-08-06 06:04:10.970 ,4,0,2.,1.2,37.,1.2,0.,1.2,0.,1.2
1979-08-06 06:04:12.170 ,4,0,2.,1.2,16.,1.2,0.,1.2,0.,1.2
1979-08-06 06:04:13.370 ,4,0,1.,1.2,18.,1.2,0.,1.2,0.,1.2
1979-08-06 06:04:14.570 ,4,0,1.,1.2,39.,1.2,0.,1.2,2.,1.2
1979-08-06 06:04:15.770 ,4,0,1.,1.2,236.,1.2,0.,1.2,2.,1.2
1979-08-06 06:04:16.970 ,4,0,2.,1.2,140.,1.2,0.,1.2,0.,1.2
1979-08-06 06:04:18.170 ,4,0,1.,1.2,124.,1.2,0.,1.2,1.,1.2
1979-08-06 06:04:19.370 ,4,0,2.,1.2,128.,1.2,0.,1.2,1.,1.2
1979-08-06 06:04:20.570 ,4,0,1.,1.2,128.,1.2,0.,1.2,1.,1.2
1979-08-06 06:04:21.770 ,7,0,1.,1.2,248.,1.2,0.,1.2,0.,1.2
1979-08-06 06:04:22.970 ,7,0,2.,1.2,136.,1.2,0.,1.2,2.,1.2
1979-08-06 06:04:24.170 ,7,0,1.,1.2,118.,1.2,0.,1.2,1.,1.2
1979-08-06 06:04:25.370 ,7,0,0.,1.2,116.,1.2,1.,1.2,1.,1.2
1979-08-06 06:04:26.570 ,7,0,0.,1.2,132.,1.2,1.,1.2,0.,1.2
1979-08-06 06:04:27.770 ,7,0,0.,1.2,272.,1.2,0.,1.2,0.,1.2
1979-08-06 06:04:28.970 ,7,0,0.,1.2,106.,1.2,0.,1.2,0.,1.2
1979-08-06 06:04:30.170 ,7,0,0.,1.2,132.,1.2,0.,1.2,0.,1.2
1979-08-06 06:04:31.370 ,7,0,1.,1.2,116.,1.2,0.,1.2,1.,1.2
1979-08-06 06:04:32.570 ,7,0,3.,1.2,128.,1.2,0.,1.2,0.,1.2
1979-08-06 06:04:33.770 ,7,0,1.,1.2,264.,1.2,2.,1.2,0.,1.2
1979-08-06 06:04:34.970 ,7,0,0.,1.2,102.,1.2,9.,1.2,0.,1.2
1979-08-06 06:04:36.170 ,7,0,0.,1.2,92.,1.2,7.,1.2,0.,1.2
1979-08-06 06:04:37.370 ,7,0,0.,1.2,86.,1.2,4.,1.2,0.,1.2
1979-08-06 06:04:38.570 ,7,0,0.,1.2,80.,1.2,1.,1.2,0.,1.2
1979-08-06 06:04:39.770 ,7,0,0.,1.2,84.,1.2,9.,1.2,0.,1.2
1979-08-06 06:04:40.970 ,7,0,0.,1.2,92.,1.2,6.,1.2,0.,1.2
1979-08-06 06:04:42.170 ,7,0,0.,1.2,86.,1.2,4.,1.2,0.,1.2
1979-08-06 06:04:43.370 ,7,0,0.,1.2,108.,1.2,8.,1.2,0.,1.2
1979-08-06 06:04:44.570 ,7,0,0.,1.2,86.,1.2,7.,1.2,0.,1.2
1979-08-06 06:04:45.770 ,3,0,0.,1.2,280.,1.2,2.,1.2,0.,1.2
1979-08-06 06:04:46.970 ,3,0,1.,1.2,108.,1.2,0.,1.2,0.,1.2
1979-08-06 06:04:48.170 ,3,0,1.,1.2,94.,1.2,0.,1.2,0.,1.2
1979-08-06 06:04:49.370 ,3,0,4.,1.2,116.,1.2,0.,1.2,0.,1.2
1979-08-06 06:04:50.570 ,3,0,2.,1.2,96.,1.2,0.,1.2,0.,1.2
1979-08-06 06:04:51.770 ,3,0,1.,1.2,272.,1.2,0.,1.2,1.,1.2
1979-08-06 06:04:52.970 ,3,0,2.,1.2,100.,1.2,0.,1.2,0.,1.2
1979-08-06 06:04:54.170 ,3,0,0.,1.2,128.,1.2,0.,1.2,1.,1.2
1979-08-06 06:04:55.370 ,3,0,1.,1.2,110.,1.2,0.,1.2,0.,1.2
1979-08-06 06:04:56.570 ,3,0,1.,1.2,94.,1.2,0.,1.2,0.,1.2
1979-08-06 06:04:57.770 ,3,0,2.,1.2,248.,1.2,0.,1.2,0.,1.2
1979-08-06 06:04:58.970 ,3,0,1.,1.2,106.,1.2,0.,1.2,0.,1.2
1979-08-06 06:05:00.170 ,3,0,2.,1.2,84.,1.2,0.,1.2,1.,1.2
1979-08-06 06:05:01.370 ,3,0,2.,1.2,90.,1.2,0.,1.2,0.,1.2
1979-08-06 06:05:02.570 ,3,0,1.,1.2,110.,1.2,0.,1.2,0.,1.2
1979-08-06 06:05:03.770 ,3,0,0.,1.2,256.,1.2,0.,1.2,1.,1.2
1979-08-06 06:05:04.970 ,3,0,1.,1.2,19.,1.2,0.,1.2,0.,1.2
1979-08-06 06:05:06.170 ,3,0,1.,1.2,20.,1.2,0.,1.2,0.,1.2
1979-08-06 06:05:07.370 ,3,0,1.,1.2,23.,1.2,0.,1.2,1.,1.2
1979-08-06 06:05:08.570 ,3,0,0.,1.2,16.,1.2,0.,1.2,0.,1.2
1979-08-06 06:05:09.770 ,0,0,0.,1.2,212.,1.2,0.,1.2,0.,1.2
1979-08-06 06:05:10.970 ,0,0,1.,1.2,66.,1.2,0.,1.2,0.,1.2
1979-08-06 06:05:12.170 ,0,0,0.,1.2,70.,1.2,0.,1.2,0.,1.2
1979-08-06 06:05:13.370 ,0,0,0.,1.2,55.,1.2,0.,1.2,0.,1.2
1979-08-06 06:05:14.570 ,0,0,0.,1.2,61.,1.2,0.,1.2,0.,1.2
1979-08-06 06:05:15.770 ,0,0,1.,1.2,264.,1.2,0.,1.2,1.,1.2
1979-08-06 06:05:16.970 ,0,0,1.,1.2,56.,1.2,0.,1.2,0.,1.2
1979-08-06 06:05:18.170 ,0,0,0.,1.2,47.,1.2,0.,1.2,0.,1.2
1979-08-06 06:05:19.370 ,0,0,1.,1.2,64.,1.2,0.,1.2,0.,1.2
1979-08-06 06:05:20.570 ,0,0,1.,1.2,68.,1.2,0.,1.2,0.,1.2
1979-08-06 06:05:21.770 ,0,0,0.,1.2,256.,1.2,0.,1.2,0.,1.2
1979-08-06 06:05:22.970 ,0,0,1.,1.2,54.,1.2,0.,1.2,0.,1.2
1979-08-06 06:05:24.170 ,0,0,0.,1.2,68.,1.2,1.,1.2,0.,1.2
1979-08-06 06:05:25.370 ,0,0,0.,1.2,70.,1.2,0.,1.2,0.,1.2
1979-08-06 06:05:26.570 ,0,0,0.,1.2,63.,1.2,0.,1.2,0.,1.2
1979-08-06 06:05:27.770 ,0,0,0.,1.2,78.,1.2,0.,1.2,0.,1.2
1979-08-06 06:05:28.970 ,0,0,2.,1.2,64.,1.2,0.,1.2,0.,1.2
1979-08-06 06:05:30.170 ,0,0,0.,1.2,59.,1.2,0.,1.2,0.,1.2
1979-08-06 06:05:31.370 ,0,0,0.,1.2,78.,1.2,0.,1.2,0.,1.2
1979-08-06 06:05:32.570 ,0,0,0.,1.2,72.,1.2,0.,1.2,0.,1.2
1979-08-06 06:05:33.770 ,0,0,2.,1.2,232.,1.2,0.,1.2,0.,1.2
1979-08-06 06:05:34.970 ,0,0,0.,1.2,76.,1.2,0.,1.2,0.,1.2
1979-08-06 06:05:36.170 ,0,0,0.,1.2,70.,1.2,0.,1.2,0.,1.2
1979-08-06 06:05:37.370 ,0,0,0.,1.2,61.,1.2,0.,1.2,0.,1.2
1979-08-06 06:05:38.570 ,0,0,1.,1.2,76.,1.2,0.,1.2,0.,1.2
1979-08-06 06:05:39.770 ,0,0,0.,1.2,228.,1.2,0.,1.2,0.,1.2
1979-08-06 06:05:40.970 ,0,0,2.,1.2,72.,1.2,0.,1.2,0.,1.2
1979-08-06 06:05:42.170 ,0,0,2.,1.2,64.,1.2,0.,1.2,1.,1.2
1979-08-06 06:05:43.370 ,0,0,0.,1.2,68.,1.2,0.,1.2,0.,1.2
1979-08-06 06:05:44.570 ,0,0,1.,1.2,60.,1.2,0.,1.2,0.,1.2
1979-08-06 06:05:45.770 ,0,0,2.,1.2,208.,1.2,0.,1.2,0.,1.2
1979-08-06 06:05:46.970 ,0,0,1.,1.2,19.,1.2,0.,1.2,0.,1.2
1979-08-06 06:05:48.170 ,0,0,1.,1.2,25.,1.2,0.,1.2,0.,1.2
1979-08-06 06:05:49.370 ,0,0,2.,1.2,19.,1.2,0.,1.2,1.,1.2
1979-08-06 06:05:50.570 ,0,0,0.,1.2,19.,1.2,0.,1.2,0.,1.2
1979-08-06 06:05:51.770 ,0,0,0.,1.2,196.,1.2,0.,1.2,1.,1.2
1979-08-06 06:05:52.970 ,0,0,1.,1.2,80.,1.2,0.,1.2,0.,1.2
1979-08-06 06:05:54.170 ,0,0,1.,1.2,72.,1.2,0.,1.2,0.,1.2
1979-08-06 06:05:55.370 ,0,0,0.,1.2,78.,1.2,1.,1.2,0.,1.2
1979-08-06 06:05:56.570 ,0,0,2.,1.2,82.,1.2,0.,1.2,1.,1.2
1979-08-06 06:05:57.770 ,0,0,2.,1.2,220.,1.2,0.,1.2,0.,1.2
1979-08-06 06:05:58.970 ,0,0,0.,1.2,74.,1.2,0.,1.2,0.,1.2
1979-08-06 06:06:00.170 ,0,0,2.,1.2,84.,1.2,0.,1.2,0.,1.2
1979-08-06 06:06:01.370 ,0,0,1.,1.2,88.,1.2,0.,1.2,1.,1.2
1979-08-06 06:06:02.570 ,0,0,0.,1.2,88.,1.2,0.,1.2,0.,1.2
1979-08-06 06:06:03.770 ,0,0,1.,1.2,240.,1.2,0.,1.2,0.,1.2
1979-08-06 06:06:04.970 ,0,0,2.,1.2,92.,1.2,0.,1.2,0.,1.2
1979-08-06 06:06:06.170 ,0,0,1.,1.2,96.,1.2,0.,1.2,0.,1.2
1979-08-06 06:06:07.370 ,0,0,1.,1.2,82.,1.2,0.,1.2,0.,1.2
1979-08-06 06:06:08.570 ,0,0,4.,1.2,92.,1.2,0.,1.2,0.,1.2
1979-08-06 06:06:09.770 ,0,0,0.,1.2,244.,1.2,4.,1.2,1.,1.2
1979-08-06 06:06:10.970 ,0,0,0.,1.2,64.,1.2,5.,1.2,0.,1.2
1979-08-06 06:06:12.170 ,0,0,0.,1.2,64.,1.2,6.,1.2,0.,1.2
1979-08-06 06:06:13.370 ,0,0,0.,1.2,61.,1.2,5.,1.2,0.,1.2
1979-08-06 06:06:14.570 ,0,0,0.,1.2,60.,1.2,6.,1.2,0.,1.2
1979-08-06 06:06:15.770 ,0,0,0.,1.2,70.,1.2,2.,1.2,0.,1.2
1979-08-06 06:06:16.970 ,0,0,0.,1.2,68.,1.2,4.,1.2,0.,1.2
1979-08-06 06:06:18.170 ,0,0,0.,1.2,62.,1.2,4.,1.2,0.,1.2
1979-08-06 06:06:19.370 ,0,0,1.,1.2,63.,1.2,7.,1.2,0.,1.2
1979-08-06 06:06:20.570 ,0,0,0.,1.2,58.,1.2,4.,1.2,0.,1.2
1979-08-06 06:06:21.770 ,5,0,0.,1.2,264.,1.2,5.,1.2,1.,1.2
1979-08-06 06:06:22.970 ,5,0,0.,1.2,57.,1.2,0.,1.2,0.,1.2
1979-08-06 06:06:24.170 ,5,0,0.,1.2,42.,1.2,0.,1.2,0.,1.2
1979-08-06 06:06:25.370 ,5,0,0.,1.2,45.,1.2,0.,1.2,1.,1.2
1979-08-06 06:06:26.570 ,5,0,1.,1.2,57.,1.2,0.,1.2,1.,1.2
1979-08-06 06:06:27.770 ,5,0,1.,1.2,272.,1.2,0.,1.2,1.,1.2
1979-08-06 06:06:28.970 ,5,0,0.,1.2,43.,1.2,0.,1.2,0.,1.2
1979-08-06 06:06:30.170 ,5,0,0.,1.2,40.,1.2,0.,1.2,0.,1.2
1979-08-06 06:06:31.370 ,5,0,2.,1.2,42.,1.2,0.,1.2,0.,1.2
1979-08-06 06:06:32.570 ,5,0,0.,1.2,41.,1.2,0.,1.2,0.,1.2
1979-08-06 06:06:33.770 ,5,0,0.,1.2,52.,1.2,0.,1.2,0.,1.2
1979-08-06 06:06:34.970 ,5,0,0.,1.2,41.,1.2,0.,1.2,0.,1.2
1979-08-06 06:06:36.170 ,5,0,3.,1.2,40.,1.2,0.,1.2,1.,1.2
1979-08-06 06:06:37.370 ,5,0,1.,1.2,38.,1.2,0.,1.2,0.,1.2
1979-08-06 06:06:38.570 ,5,0,0.,1.2,35.,1.2,0.,1.2,0.,1.2
1979-08-06 06:06:39.770 ,5,0,2.,1.2,38.,1.2,0.,1.2,2.,1.2
1979-08-06 06:06:40.970 ,5,0,1.,1.2,38.,1.2,0.,1.2,0.,1.2
1979-08-06 06:06:42.170 ,5,0,2.,1.2,51.,1.2,0.,1.2,0.,1.2
1979-08-06 06:06:43.370 ,5,0,0.,1.2,38.,1.2,0.,1.2,0.,1.2
1979-08-06 06:06:44.570 ,5,0,0.,1.2,35.,1.2,1.,1.2,0.,1.2
1979-08-06 06:06:45.770 ,5,0,1.,1.2,56.,1.2,0.,1.2,0.,1.2
1979-08-06 06:06:46.970 ,5,0,0.,1.2,55.,1.2,0.,1.2,0.,1.2
1979-08-06 06:06:48.170 ,5,0,1.,1.2,44.,1.2,0.,1.2,0.,1.2
1979-08-06 06:06:49.370 ,5,0,1.,1.2,44.,1.2,0.,1.2,0.,1.2
1979-08-06 06:06:50.570 ,5,0,0.,1.2,43.,1.2,0.,1.2,0.,1.2
1979-08-06 06:06:51.770 ,5,0,1.,1.2,53.,1.2,0.,1.2,0.,1.2
1979-08-06 06:06:52.970 ,5,0,0.,1.2,39.,1.2,0.,1.2,0.,1.2
1979-08-06 06:06:54.170 ,5,0,0.,1.2,40.,1.2,0.,1.2,1.,1.2
1979-08-06 06:06:55.370 ,5,0,0.,1.2,35.,1.2,0.,1.2,0.,1.2
1979-08-06 06:06:56.570 ,5,0,0.,1.2,36.,1.2,0.,1.2,0.,1.2
1979-08-06 06:06:57.770 ,5,0,1.,1.2,42.,1.2,0.,1.2,0.,1.2
1979-08-06 06:06:58.970 ,5,0,1.,1.2,46.,1.2,0.,1.2,0.,1.2
1979-08-06 06:07:00.170 ,5,0,0.,1.2,51.,1.2,1.,1.2,0.,1.2
1979-08-06 06:07:01.370 ,5,0,0.,1.2,34.,1.2,0.,1.2,0.,1.2
1979-08-06 06:07:02.570 ,5,0,0.,1.2,47.,1.2,0.,1.2,0.,1.2
1979-08-06 06:07:03.770 ,5,0,2.,1.2,44.,1.2,0.,1.2,0.,1.2
1979-08-06 06:07:04.970 ,5,0,1.,1.2,42.,1.2,0.,1.2,1.,1.2
1979-08-06 06:07:06.170 ,5,0,0.,1.2,32.,1.2,0.,1.2,0.,1.2
1979-08-06 06:07:07.370 ,5,0,0.,1.2,44.,1.2,0.,1.2,0.,1.2
1979-08-06 06:07:08.570 ,5,0,1.,1.2,46.,1.2,0.,1.2,0.,1.2
1979-08-06 06:07:09.770 ,4,0,1.,1.2,41.,1.2,0.,1.2,0.,1.2
1979-08-06 06:07:10.970 ,4,0,0.,1.2,48.,1.2,0.,1.2,0.,1.2
1979-08-06 06:07:12.170 ,4,0,0.,1.2,47.,1.2,0.,1.2,0.,1.2
1979-08-06 06:07:13.370 ,4,0,1.,1.2,46.,1.2,0.,1.2,0.,1.2
1979-08-06 06:07:14.570 ,4,0,0.,1.2,41.,1.2,0.,1.2,0.,1.2
1979-08-06 06:07:15.770 ,4,0,1.,1.2,196.,1.2,0.,1.2,0.,1.2
1979-08-06 06:07:16.970 ,4,0,0.,1.2,35.,1.2,0.,1.2,0.,1.2
1979-08-06 06:07:18.170 ,4,0,1.,1.2,40.,1.2,0.,1.2,0.,1.2
1979-08-06 06:07:19.370 ,4,0,1.,1.2,35.,1.2,0.,1.2,1.,1.2
1979-08-06 06:07:20.570 ,4,0,4.,1.2,40.,1.2,0.,1.2,0.,1.2
1979-08-06 06:07:21.770 ,4,0,0.,1.2,35.,1.2,0.,1.2,0.,1.2
1979-08-06 06:07:22.970 ,4,0,0.,1.2,43.,1.2,0.,1.2,0.,1.2
1979-08-06 06:07:24.170 ,4,0,1.,1.2,33.,1.2,0.,1.2,0.,1.2
1979-08-06 06:07:25.370 ,4,0,1.,1.2,43.,1.2,0.,1.2,0.,1.2
1979-08-06 06:07:26.570 ,4,0,1.,1.2,40.,1.2,0.,1.2,0.,1.2
1979-08-06 06:07:27.770 ,4,0,0.,1.2,38.,1.2,0.,1.2,0.,1.2
1979-08-06 06:07:28.970 ,4,0,0.,1.2,46.,1.2,0.,1.2,1.,1.2
1979-08-06 06:07:30.170 ,4,0,3.,1.2,35.,1.2,0.,1.2,0.,1.2
1979-08-06 06:07:31.370 ,4,0,1.,1.2,36.,1.2,0.,1.2,0.,1.2
1979-08-06 06:07:32.570 ,4,0,2.,1.2,35.,1.2,0.,1.2,0.,1.2
1979-08-06 06:07:33.770 ,4,0,0.,1.2,43.,1.2,0.,1.2,2.,1.2
1979-08-06 06:07:34.970 ,4,0,1.,1.2,26.,1.2,0.,1.2,0.,1.2
1979-08-06 06:07:36.170 ,4,0,1.,1.2,41.,1.2,0.,1.2,0.,1.2
1979-08-06 06:07:37.370 ,4,0,2.,1.2,39.,1.2,0.,1.2,0.,1.2
1979-08-06 06:07:38.570 ,4,0,0.,1.2,33.,1.2,0.,1.2,0.,1.2
1979-08-06 06:07:39.770 ,4,0,2.,1.2,32.,1.2,0.,1.2,0.,1.2
1979-08-06 06:07:40.970 ,4,0,2.,1.2,44.,1.2,0.,1.2,0.,1.2
1979-08-06 06:07:42.170 ,4,0,1.,1.2,39.,1.2,0.,1.2,0.,1.2
1979-08-06 06:07:43.370 ,4,0,1.,1.2,41.,1.2,0.,1.2,0.,1.2
1979-08-06 06:07:44.570 ,4,0,1.,1.2,42.,1.2,0.,1.2,1.,1.2
1979-08-06 06:07:45.770 ,4,0,1.,1.2,38.,1.2,0.,1.2,0.,1.2
1979-08-06 06:07:46.970 ,4,0,3.,1.2,37.,1.2,0.,1.2,1.,1.2
1979-08-06 06:07:48.170 ,4,0,1.,1.2,36.,1.2,0.,1.2,0.,1.2
1979-08-06 06:07:49.370 ,4,0,0.,1.2,38.,1.2,0.,1.2,0.,1.2
1979-08-06 06:07:50.570 ,4,0,0.,1.2,36.,1.2,0.,1.2,0.,1.2
1979-08-06 06:07:51.770 ,4,0,1.,1.2,42.,1.2,1.,1.2,0.,1.2
1979-08-06 06:07:52.970 ,4,0,2.,1.2,27.,1.2,0.,1.2,0.,1.2
1979-08-06 06:07:54.170 ,4,0,2.,1.2,42.,1.2,0.,1.2,1.,1.2
1979-08-06 06:07:55.370 ,4,0,0.,1.2,35.,1.2,0.,1.2,0.,1.2
1979-08-06 06:07:56.570 ,4,0,0.,1.2,34.,1.2,0.,1.2,0.,1.2
1979-08-06 06:07:57.770 ,3,0,1.,1.2,43.,1.2,0.,1.2,1.,1.2
1979-08-06 06:07:58.970 ,3,0,1.,1.2,44.,1.2,0.,1.2,0.,1.2
1979-08-06 06:08:00.170 ,3,0,0.,1.2,29.,1.2,0.,1.2,0.,1.2
1979-08-06 06:08:01.370 ,3,0,0.,1.2,35.,1.2,0.,1.2,0.,1.2
1979-08-06 06:08:02.570 ,3,0,3.,1.2,44.,1.2,1.,1.2,1.,1.2
1979-08-06 06:08:03.770 ,3,0,0.,1.2,192.,1.2,0.,1.2,0.,1.2
1979-08-06 06:08:04.970 ,3,0,0.,1.2,14.,1.2,0.,1.2,0.,1.2
1979-08-06 06:08:06.170 ,3,0,0.,1.2,11.,1.2,0.,1.2,1.,1.2
1979-08-06 06:08:07.370 ,3,0,4.,1.2,8.,1.2,0.,1.2,0.,1.2
1979-08-06 06:08:08.570 ,3,0,1.,1.2,18.,1.2,0.,1.2,0.,1.2
1979-08-06 06:08:09.770 ,3,0,1.,1.2,13.,1.2,0.,1.2,1.,1.2
1979-08-06 06:08:10.970 ,3,0,2.,1.2,12.,1.2,0.,1.2,0.,1.2
1979-08-06 06:08:12.170 ,3,0,5.,1.2,18.,1.2,0.,1.2,1.,1.2
1979-08-06 06:08:13.370 ,3,0,2.,1.2,13.,1.2,0.,1.2,0.,1.2
1979-08-06 06:08:14.570 ,3,0,2.,1.2,13.,1.2,0.,1.2,0.,1.2
1979-08-06 06:08:15.770 ,3,0,1.,1.2,15.,1.2,0.,1.2,0.,1.2
1979-08-06 06:08:16.970 ,3,0,1.,1.2,13.,1.2,0.,1.2,0.,1.2
1979-08-06 06:08:18.170 ,3,0,0.,1.2,8.,1.2,0.,1.2,1.,1.2
1979-08-06 06:08:19.370 ,3,0,2.,1.2,11.,1.2,0.,1.2,0.,1.2
1979-08-06 06:08:20.570 ,3,0,0.,1.2,8.,1.2,0.,1.2,0.,1.2
1979-08-06 06:08:21.770 ,3,0,0.,1.2,9.,1.2,1.,1.2,0.,1.2
1979-08-06 06:08:22.970 ,3,0,0.,1.2,13.,1.2,0.,1.2,1.,1.2